Location: Paralde Spring
(38.5794°N, 119.0140°W)
Time: 23:06:56
(UTC+00:00)

Cosmos 2263 Rocket - Pass Details

Date: 18 September 2020
Orbit: 822 x 849 km, 71.0° (Epoch: 20 October)

Event Time Altitude Azimuth Distance (km) Brightness Sun altitude
Rises 13:09:05 0° 328° (NNW) 3,399 5.1 -7.0°
Reaches altitude 10° 13:11:40 10° 321° (NW) 2,464 4.3 -6.5°
Maximum altitude 13:16:50 38° 255° (WSW) 1,272 2.7 -5.5°
Drops below altitude 10° 13:22:00 10° 189° (S) 2,462 4.5 -4.5°
Sets 13:24:36 0° 181° (S) 3,395 5.3 -4.0°
